Time,TemperatureF,DewpointF,PressureIn,WindDirection,WindDirectionDegrees,WindSpeedMPH,WindSpeedGustMPH,Humidity,HourlyPrecipIn,Conditions,Clouds,dailyrainin,SoftwareType,DateUTC
2013-02-17 00:04:00,27.2,12.0,29.77,SSE,160,0.0,3.0,53,0.00,,,0.00,weatherlink.com 1.10,2013-02-17 05:04:00,
2013-02-17 00:19:00,27.0,12.0,29.76,SSE,167,1.0,3.0,53,0.00,,,0.00,weatherlink.com 1.10,2013-02-17 05:19:00,
2013-02-17 00:34:00,26.9,12.0,29.75,SE,126,2.0,4.0,53,0.00,,,0.00,weatherlink.com 1.10,2013-02-17 05:34:00,
2013-02-17 00:49:00,26.7,12.0,29.76,SSE,159,0.0,3.0,54,0.00,,,0.00,weatherlink.com 1.10,2013-02-17 05:49:00,
2013-02-17 01:04:00,26.5,11.0,29.74,South,184,0.0,5.0,53,0.00,,,0.00,weatherlink.com 1.10,2013-02-17 06:04:00,
2013-02-17 01:19:00,26.3,11.0,29.75,SSE,147,0.0,3.0,53,0.00,,,0.00,weatherlink.com 1.10,2013-02-17 06:19:00,
2013-02-17 01:34:00,26.2,11.0,29.75,SSE,156,2.0,2.0,54,0.00,,,0.00,weatherlink.com 1.10,2013-02-17 06:34:00,
2013-02-17 01:49:00,26.1,11.0,29.75,SE,145,1.0,3.0,53,0.00,,,0.00,weatherlink.com 1.10,2013-02-17 06:49:00,
2013-02-17 02:04:00,26.0,10.0,29.75,SSE,160,1.0,3.0,52,0.00,,,0.00,weatherlink.com 1.10,2013-02-17 07:04:00,
2013-02-17 02:19:00,25.9,10.0,29.74,SSE,148,0.0,3.0,52,0.00,,,0.00,weatherlink.com 1.10,2013-02-17 07:19:00,
2013-02-17 02:34:00,25.8,10.0,29.73,SSE,163,0.0,2.0,51,0.00,,,0.00,weatherlink.com 1.10,2013-02-17 07:34:00,
2013-02-17 02:50:00,25.7,10.0,29.73,SSE,153,0.0,5.0,52,0.00,,,0.00,weatherlink.com 1.10,2013-02-17 07:50:00,
2013-02-17 03:05:00,25.6,10.0,29.74,SSE,149,1.0,3.0,52,0.00,,,0.00,weatherlink.com 1.10,2013-02-17 08:05:00,
2013-02-17 03:19:00,25.5,11.0,29.73,SE,132,0.0,3.0,54,0.00,,,0.00,weatherlink.com 1.10,2013-02-17 08:19:00,
2013-02-17 03:35:00,25.4,11.0,29.73,SSE,148,0.0,4.0,54,0.00,,,0.00,weatherlink.com 1.10,2013-02-17 08:35:00,
2013-02-17 03:50:00,25.4,11.0,29.73,ESE,121,1.0,2.0,55,0.00,,,0.00,weatherlink.com 1.10,2013-02-17 08:50:00,
2013-02-17 04:04:00,25.4,11.0,29.73,SE,141,0.0,4.0,54,0.00,,,0.00,weatherlink.com 1.10,2013-02-17 09:04:00,
2013-02-17 04:19:00,25.4,9.0,29.73,SE,128,0.0,2.0,51,0.00,,,0.00,weatherlink.com 1.10,2013-02-17 09:19:00,
2013-02-17 04:34:00,25.3,9.0,29.73,SE,132,0.0,2.0,51,0.00,,,0.00,weatherlink.com 1.10,2013-02-17 09:34:00,
2013-02-17 04:49:00,25.2,8.0,29.73,South,172,1.0,3.0,48,0.00,,,0.00,weatherlink.com 1.10,2013-02-17 09:49:00,
2013-02-17 05:05:00,25.1,7.0,29.72,SSW,198,1.0,6.0,47,0.00,,,0.00,weatherlink.com 1.10,2013-02-17 10:05:00,
2013-02-17 05:19:00,25.0,7.0,29.72,SE,132,1.0,5.0,46,0.00,,,0.00,weatherlink.com 1.10,2013-02-17 10:19:00,
2013-02-17 05:35:00,24.8,6.0,29.72,SSE,157,0.0,4.0,44,0.00,,,0.00,weatherlink.com 1.10,2013-02-17 10:35:00,
2013-02-17 05:50:00,24.7,6.0,29.72,ESE,123,0.0,4.0,45,0.00,,,0.00,weatherlink.com 1.10,2013-02-17 10:50:00,
2013-02-17 06:05:00,24.5,6.0,29.72,South,173,1.0,5.0,45,0.00,,,0.00,weatherlink.com 1.10,2013-02-17 11:05:00,
2013-02-17 06:20:00,24.3,6.0,29.72,ESE,123,1.0,3.0,46,0.00,,,0.00,weatherlink.com 1.10,2013-02-17 11:20:00,
2013-02-17 06:35:00,24.1,6.0,29.71,SSW,208,1.0,4.0,47,0.00,,,0.00,weatherlink.com 1.10,2013-02-17 11:35:00,
2013-02-17 06:50:00,23.9,5.0,29.72,South,173,0.0,5.0,45,0.00,,,0.00,weatherlink.com 1.10,2013-02-17 11:50:00,
2013-02-17 07:05:00,23.7,5.0,29.72,SE,127,3.0,4.0,45,0.00,,,0.00,weatherlink.com 1.10,2013-02-17 12:05:00,
2013-02-17 07:20:00,23.6,5.0,29.73,SE,124,2.0,4.0,45,0.00,,,0.00,weatherlink.com 1.10,2013-02-17 12:20:00,
2013-02-17 07:35:00,23.6,5.0,29.74,SE,128,2.0,3.0,46,0.00,,,0.00,weatherlink.com 1.10,2013-02-17 12:35:00,
2013-02-17 07:50:00,23.6,5.0,29.74,ESE,113,2.0,6.0,44,0.00,,,0.00,weatherlink.com 1.10,2013-02-17 12:50:00,
2013-02-17 08:05:00,23.8,5.0,29.74,SE,127,1.0,6.0,45,0.00,,,0.00,weatherlink.com 1.10,2013-02-17 13:05:00,
2013-02-17 08:20:00,23.8,5.0,29.74,SSE,162,1.0,6.0,44,0.00,,,0.00,weatherlink.com 1.10,2013-02-17 13:20:00,
2013-02-17 08:35:00,24.0,4.0,29.74,ESE,120,2.0,6.0,43,0.00,,,0.00,weatherlink.com 1.10,2013-02-17 13:35:00,
2013-02-17 08:50:00,24.5,4.0,29.73,SE,146,3.0,6.0,41,0.00,,,0.00,weatherlink.com 1.10,2013-02-17 13:50:00,
2013-02-17 09:05:00,24.9,4.0,29.73,ESE,110,2.0,8.0,41,0.00,,,0.00,weatherlink.com 1.10,2013-02-17 14:05:00,
2013-02-17 09:20:00,25.5,4.0,29.73,SE,129,3.0,6.0,40,0.00,,,0.00,weatherlink.com 1.10,2013-02-17 14:20:00,
2013-02-17 09:35:00,26.3,4.0,29.73,WSW,237,3.0,7.0,39,0.00,,,0.00,weatherlink.com 1.10,2013-02-17 14:35:00,
2013-02-17 09:50:00,27.2,4.0,29.74,SE,132,3.0,6.0,37,0.00,,,0.00,weatherlink.com 1.10,2013-02-17 14:50:00,
2013-02-17 10:05:00,27.5,6.0,29.74,South,191,1.0,7.0,40,0.00,,,0.00,weatherlink.com 1.10,2013-02-17 15:05:00,
2013-02-17 10:20:00,27.8,5.0,29.74,SSE,155,1.0,7.0,37,0.00,,,0.00,weatherlink.com 1.10,2013-02-17 15:20:00,
2013-02-17 10:35:00,28.3,6.0,29.74,SE,129,5.0,8.0,38,0.00,,,0.00,weatherlink.com 1.10,2013-02-17 15:35:00,
2013-02-17 10:50:00,29.0,5.0,29.74,SE,131,7.0,9.0,36,0.00,,,0.00,weatherlink.com 1.10,2013-02-17 15:50:00,
2013-02-17 11:06:00,28.7,5.0,29.74,East,96,5.0,7.0,37,0.00,,,0.00,weatherlink.com 1.10,2013-02-17 16:06:00,
2013-02-17 11:20:00,29.0,5.0,29.75,SSE,150,0.0,9.0,36,0.00,,,0.00,weatherlink.com 1.10,2013-02-17 16:20:00,
2013-02-17 11:36:00,29.1,6.0,29.75,SE,134,8.0,8.0,38,0.00,,,0.00,weatherlink.com 1.10,2013-02-17 16:36:00,
2013-02-17 11:51:00,29.3,5.0,29.75,SE,134,3.0,9.0,36,0.00,,,0.00,weatherlink.com 1.10,2013-02-17 16:51:00,
2013-02-17 12:05:00,29.7,6.0,29.74,SE,134,3.0,10.0,36,0.00,,,0.00,weatherlink.com 1.10,2013-02-17 17:05:00,
2013-02-17 12:20:00,29.8,7.0,29.74,SE,128,6.0,9.0,38,0.00,,,0.00,weatherlink.com 1.10,2013-02-17 17:20:00,
2013-02-17 12:36:00,30.4,7.0,29.74,SSE,166,4.0,10.0,37,0.00,,,0.00,weatherlink.com 1.10,2013-02-17 17:36:00,
2013-02-17 12:51:00,30.6,6.0,29.75,SSE,157,5.0,8.0,35,0.00,,,0.00,weatherlink.com 1.10,2013-02-17 17:51:00,
2013-02-17 13:06:00,30.1,6.0,29.74,SSE,166,1.0,9.0,36,0.00,,,0.00,weatherlink.com 1.10,2013-02-17 18:06:00,
2013-02-17 13:21:00,29.9,5.0,29.75,East,91,3.0,7.0,35,0.00,,,0.00,weatherlink.com 1.10,2013-02-17 18:21:00,
2013-02-17 13:36:00,28.1,4.0,29.75,SE,145,4.0,10.0,35,0.00,,,0.00,weatherlink.com 1.10,2013-02-17 18:36:00,
2013-02-17 13:51:00,28.1,5.0,29.76,SE,136,2.0,9.0,37,0.00,,,0.00,weatherlink.com 1.10,2013-02-17 18:51:00,
2013-02-17 14:06:00,28.6,4.0,29.76,SW,233,3.0,8.0,35,0.00,,,0.00,weatherlink.com 1.10,2013-02-17 19:06:00,
2013-02-17 14:21:00,27.7,5.0,29.77,SE,127,2.0,8.0,38,0.00,,,0.00,weatherlink.com 1.10,2013-02-17 19:21:00,
2013-02-17 14:36:00,28.7,4.0,29.77,SE,124,4.0,8.0,35,0.00,,,0.00,weatherlink.com 1.10,2013-02-17 19:36:00,
2013-02-17 14:51:00,29.5,5.0,29.78,ESE,122,2.0,7.0,35,0.00,,,0.00,weatherlink.com 1.10,2013-02-17 19:51:00,
2013-02-17 15:06:00,29.3,5.0,29.78,SE,130,2.0,9.0,36,0.00,,,0.00,weatherlink.com 1.10,2013-02-17 20:06:00,
2013-02-17 15:21:00,28.8,4.0,29.79,ESE,114,4.0,12.0,35,0.00,,,0.00,weatherlink.com 1.10,2013-02-17 20:21:00,
2013-02-17 15:36:00,28.1,5.0,29.79,ESE,121,3.0,9.0,37,0.00,,,0.00,weatherlink.com 1.10,2013-02-17 20:36:00,
2013-02-17 15:51:00,27.7,5.0,29.80,SSE,150,1.0,7.0,38,0.00,,,0.00,weatherlink.com 1.10,2013-02-17 20:51:00,
2013-02-17 16:06:00,27.0,6.0,29.80,SE,144,5.0,6.0,41,0.00,,,0.00,weatherlink.com 1.10,2013-02-17 21:06:00,
2013-02-17 16:21:00,25.9,6.0,29.81,SE,145,0.0,9.0,43,0.00,,,0.00,weatherlink.com 1.10,2013-02-17 21:21:00,
2013-02-17 16:36:00,24.7,7.0,29.82,SSE,150,1.0,6.0,47,0.00,,,0.00,weatherlink.com 1.10,2013-02-17 21:36:00,
2013-02-17 16:51:00,24.3,7.0,29.82,ESE,119,5.0,8.0,47,0.00,,,0.00,weatherlink.com 1.10,2013-02-17 21:51:00,
2013-02-17 17:06:00,24.1,9.0,29.83,South,177,2.0,8.0,53,0.00,,,0.00,weatherlink.com 1.10,2013-02-17 22:06:00,
2013-02-17 17:21:00,23.3,10.0,29.84,SE,141,5.0,8.0,56,0.00,,,0.00,weatherlink.com 1.10,2013-02-17 22:21:00,
2013-02-17 17:36:00,22.7,7.0,29.85,ESE,122,2.0,7.0,52,0.00,,,0.00,weatherlink.com 1.10,2013-02-17 22:36:00,
2013-02-17 17:52:00,22.5,6.0,29.85,East,86,5.0,7.0,49,0.00,,,0.00,weatherlink.com 1.10,2013-02-17 22:52:00,
2013-02-17 18:21:00,21.6,5.0,29.87,SE,124,4.0,8.0,50,0.00,,,0.00,weatherlink.com 1.10,2013-02-17 23:21:00,
2013-02-17 18:36:00,21.1,7.0,29.89,SE,124,0.0,5.0,54,0.00,,,0.00,weatherlink.com 1.10,2013-02-17 23:36:00,
2013-02-17 18:52:00,20.8,6.0,29.89,ESE,103,1.0,8.0,54,0.00,,,0.00,weatherlink.com 1.10,2013-02-17 23:52:00,
2013-02-17 19:07:00,20.4,6.0,29.90,East,98,0.0,6.0,54,0.00,,,0.00,weatherlink.com 1.10,2013-02-18 00:07:00,
2013-02-17 19:21:00,20.1,6.0,29.91,ESE,119,1.0,7.0,54,0.00,,,0.00,weatherlink.com 1.10,2013-02-18 00:21:00,
2013-02-17 19:37:00,19.7,5.0,29.92,ESE,122,4.0,8.0,54,0.00,,,0.00,weatherlink.com 1.10,2013-02-18 00:37:00,
2013-02-17 19:52:00,19.6,4.0,29.93,ESE,118,2.0,4.0,52,0.00,,,0.00,weatherlink.com 1.10,2013-02-18 00:52:00,
2013-02-17 20:07:00,19.5,4.0,29.94,SE,138,0.0,5.0,51,0.00,,,0.00,weatherlink.com 1.10,2013-02-18 01:07:00,
2013-02-17 20:22:00,19.2,5.0,29.95,SE,131,0.0,4.0,53,0.00,,,0.00,weatherlink.com 1.10,2013-02-18 01:22:00,
2013-02-17 20:37:00,18.9,2.0,29.96,SE,139,2.0,8.0,47,0.00,,,0.00,weatherlink.com 1.10,2013-02-18 01:37:00,
2013-02-17 20:52:00,18.5,2.0,29.97,South,169,1.0,5.0,49,0.00,,,0.00,weatherlink.com 1.10,2013-02-18 01:52:00,
2013-02-17 21:07:00,18.0,2.0,29.98,SW,233,4.0,7.0,49,0.00,,,0.00,weatherlink.com 1.10,2013-02-18 02:07:00,
2013-02-17 21:22:00,17.7,1.0,29.98,South,191,0.0,8.0,48,0.00,,,0.00,weatherlink.com 1.10,2013-02-18 02:22:00,
2013-02-17 21:37:00,17.3,1.0,29.98,SE,146,3.0,6.0,49,0.00,,,0.00,weatherlink.com 1.10,2013-02-18 02:37:00,
2013-02-17 21:52:00,16.9,1.0,29.99,SSE,150,0.0,8.0,50,0.00,,,0.00,weatherlink.com 1.10,2013-02-18 02:52:00,
2013-02-17 22:07:00,16.3,1.0,30.00,South,191,1.0,7.0,51,0.00,,,0.00,weatherlink.com 1.10,2013-02-18 03:07:00,
2013-02-17 22:22:00,16.0,1.0,30.00,ESE,116,4.0,7.0,52,0.00,,,0.00,weatherlink.com 1.10,2013-02-18 03:22:00,
2013-02-17 22:37:00,15.8,1.0,30.00,SSE,157,4.0,7.0,51,0.00,,,0.00,weatherlink.com 1.10,2013-02-18 03:37:00,
2013-02-17 22:52:00,15.7,0.0,30.02,ESE,120,2.0,9.0,51,0.00,,,0.00,weatherlink.com 1.10,2013-02-18 03:52:00,
2013-02-17 23:07:00,15.6,1.0,30.02,SSE,150,4.0,5.0,52,0.00,,,0.00,weatherlink.com 1.10,2013-02-18 04:07:00,
2013-02-17 23:23:00,15.6,1.0,30.03,ESE,103,1.0,7.0,52,0.00,,,0.00,weatherlink.com 1.10,2013-02-18 04:23:00,
2013-02-17 23:38:00,15.5,1.0,30.04,ESE,110,2.0,6.0,53,0.00,,,0.00,weatherlink.com 1.10,2013-02-18 04:38:00,
2013-02-17 23:52:00,15.5,1.0,30.04,ENE,77,1.0,9.0,53,0.00,,,0.00,weatherlink.com 1.10,2013-02-18 04:52:00,